When you browse on this site, cookies collect data to enhance your experience and personalize the content and advertising you see.
Visit our Privacy Policy to learn more. By continuing to use the site, you agree to this use of cookies and data.
  • In Latvia
  • List of Countries
  • For 7 days
  • Water Temperature
  • Satellite Maps
  • Weather Map
  • Weather Widgets
  • user-avatar
    Login

    Hourly Weather Kaprun

    Today, 19 July, Friday

    Time Temperature Precipitation Wind Pressure Humidity
    00:00 +6°C° 0 mm 1 mps 597 mmHg 90%
    01:00 +6°C° 0 mm 1 mps 597 mmHg 90%
    02:00 +6°C° 0 mm 1 mps 597 mmHg 89%
    03:00 +6°C° 0 mm 1 mps 597 mmHg 88%
    04:00 +6°C° 0 mm 1 mps 597 mmHg 87%
    05:00 +7°C° 0 mm 1 mps 598 mmHg 83%
    06:00 +9°C° 0 mm 1 mps 599 mmHg 78%
    07:00 +11°C° 0 mm 0 mps 600 mmHg 73%
    08:00 +12°C° 0 mm 0 mps 601 mmHg 64%
    09:00 +15°C° 0 mm 1 mps 601 mmHg 56%
    10:00 +16°C° 0 mm 1 mps 602 mmHg 47%
    11:00 +18°C° 0.1 mm 1 mps 602 mmHg 46%
    12:00 +18°C° 0.1 mm 1 mps 602 mmHg 45%
    13:00 +19°C° 0.1 mm 1 mps 602 mmHg 44%
    14:00 +18°C° 0.3 mm 1 mps 602 mmHg 51%
    15:00 +18°C° 0.3 mm 1 mps 602 mmHg 57%
    16:00 +16°C° 0.3 mm 1 mps 601 mmHg 63%
    17:00 +15°C° 0.4 mm 1 mps 601 mmHg 72%
    18:00 +13°C° 0.4 mm 1 mps 601 mmHg 81%
    19:00 +11°C° 0.4 mm 0 mps 600 mmHg 90%
    20:00 +10°C° 0 mm 0 mps 600 mmHg 90%
    21:00 +9°C° 0 mm 1 mps 599 mmHg 90%
    22:00 +8°C° 0 mm 1 mps 599 mmHg 91%
    23:00 +8°C° 0 mm 1 mps 599 mmHg 90%

    Tomorrow, 20 July, Saturday

    Time Temperature Precipitation Wind Pressure Humidity
    00:00 +8°C° 0 mm 1 mps 599 mmHg 90%
    01:00 +7°C° 0 mm 1 mps 599 mmHg 89%
    02:00 +7°C° 0 mm 1 mps 599 mmHg 89%
    03:00 +7°C° 0 mm 1 mps 599 mmHg 88%
    04:00 +7°C° 0 mm 1 mps 598 mmHg 88%
    05:00 +9°C° 0 mm 1 mps 599 mmHg 84%
    06:00 +11°C° 0 mm 1 mps 601 mmHg 80%
    07:00 +13°C° 0 mm 1 mps 602 mmHg 75%
    08:00 +15°C° 0 mm 1 mps 602 mmHg 67%
    09:00 +18°C° 0 mm 1 mps 603 mmHg 58%
    10:00 +20°C° 0 mm 1 mps 604 mmHg 49%
    11:00 +21°C° 0.1 mm 1 mps 604 mmHg 49%
    12:00 +21°C° 0.1 mm 1 mps 604 mmHg 49%
    13:00 +21°C° 0.1 mm 1 mps 604 mmHg 48%
    14:00 +21°C° 0.7 mm 1 mps 604 mmHg 53%
    15:00 +20°C° 0.7 mm 1 mps 604 mmHg 58%
    16:00 +19°C° 0.7 mm 1 mps 603 mmHg 62%
    17:00 +18°C° 1 mm 1 mps 603 mmHg 71%
    18:00 +15°C° 1 mm 1 mps 603 mmHg 79%
    19:00 +13°C° 1 mm 0 mps 602 mmHg 87%
    20:00 +13°C° 0.6 mm 1 mps 602 mmHg 87%
    21:00 +12°C° 0.6 mm 1 mps 602 mmHg 86%
    22:00 +11°C° 0.6 mm 1 mps 602 mmHg 86%
    23:00 +11°C° 0 mm 1 mps 602 mmHg 84%

    Day after tomorrow, 21 July, Sunday

    Time Temperature Precipitation Wind Pressure Humidity
    00:00 +11°C° 0 mm 1 mps 602 mmHg 81%
    01:00 +10°C° 0 mm 1 mps 601 mmHg 79%
    02:00 +10°C° 0 mm 1 mps 601 mmHg 77%
    03:00 +10°C° 0 mm 1 mps 601 mmHg 74%
    04:00 +10°C° 0 mm 1 mps 601 mmHg 72%
    05:00 +12°C° 0 mm 1 mps 602 mmHg 68%
    06:00 +12°C° 0 mm 0 mps 603 mmHg 65%
    07:00 +14°C° 0 mm 0 mps 604 mmHg 61%
    08:00 +16°C° 0.1 mm 1 mps 605 mmHg 58%
    09:00 +18°C° 0.1 mm 1 mps 605 mmHg 55%
    10:00 +18°C° 0.1 mm 2 mps 606 mmHg 53%
    11:00 +18°C° 0.8 mm 2 mps 606 mmHg 60%
    12:00 +17°C° 0.8 mm 2 mps 605 mmHg 67%
    13:00 +17°C° 0.8 mm 2 mps 605 mmHg 75%
    14:00 +17°C° 0.8 mm 2 mps 605 mmHg 76%
    15:00 +17°C° 0.8 mm 2 mps 605 mmHg 77%
    16:00 +17°C° 0.8 mm 2 mps 605 mmHg 78%
    17:00 +16°C° 0.5 mm 2 mps 605 mmHg 83%
    18:00 +15°C° 0.5 mm 1 mps 605 mmHg 87%
    19:00 +14°C° 0.5 mm 1 mps 605 mmHg 92%
    20:00 +12°C° 0.2 mm 1 mps 604 mmHg 92%
    21:00 +11°C° 0.2 mm 1 mps 604 mmHg 93%
    22:00 +9°C° 0.2 mm 1 mps 604 mmHg 93%
    23:00 +9°C° 0 mm 1 mps 604 mmHg 93%

    22 July, Monday

    Time Temperature Precipitation Wind Pressure Humidity
    00:00 +9°C° 0 mm 1 mps 603 mmHg 93%
    01:00 +8°C° 0 mm 1 mps 603 mmHg 92%
    02:00 +8°C° 0 mm 1 mps 603 mmHg 92%
    03:00 +8°C° 0 mm 1 mps 603 mmHg 91%
    04:00 +8°C° 0 mm 1 mps 603 mmHg 90%
    05:00 +10°C° 0 mm 1 mps 604 mmHg 87%
    06:00 +11°C° 0 mm 0 mps 605 mmHg 84%
    07:00 +13°C° 0 mm 0 mps 606 mmHg 81%
    08:00 +15°C° 0 mm 1 mps 607 mmHg 74%
    09:00 +18°C° 0 mm 1 mps 607 mmHg 67%
    10:00 +19°C° 0 mm 1 mps 608 mmHg 60%
    11:00 +19°C° 0.1 mm 2 mps 608 mmHg 58%
    12:00 +19°C° 0.1 mm 2 mps 608 mmHg 57%
    13:00 +20°C° 0.1 mm 2 mps 608 mmHg 55%
    14:00 +20°C° 0.1 mm 2 mps 608 mmHg 56%
    15:00 +20°C° 0.1 mm 2 mps 607 mmHg 57%
    16:00 +20°C° 0.1 mm 2 mps 607 mmHg 58%
    17:00 +18°C° 0 mm 2 mps 607 mmHg 68%
    18:00 +17°C° 0 mm 2 mps 606 mmHg 77%
    19:00 +15°C° 0 mm 1 mps 606 mmHg 86%
    20:00 +14°C° 0 mm 1 mps 605 mmHg 89%
    21:00 +12°C° 0 mm 1 mps 605 mmHg 92%
    22:00 +11°C° 0 mm 1 mps 604 mmHg 96%
    23:00 +10°C° 0 mm 1 mps 604 mmHg 95%

    23 July, Tuesday

    Time Temperature Precipitation Wind Pressure Humidity
    00:00 +10°C° 0 mm 1 mps 604 mmHg 94%
    01:00 +10°C° 0 mm 1 mps 604 mmHg 94%
    02:00 +10°C° 0 mm 1 mps 603 mmHg 94%
    03:00 +10°C° 0 mm 1 mps 603 mmHg 93%
    04:00 +10°C° 0 mm 1 mps 603 mmHg 93%
    05:00 +11°C° 0 mm 1 mps 604 mmHg 89%
    06:00 +13°C° 0 mm 1 mps 604 mmHg 85%
    07:00 +14°C° 0 mm 1 mps 605 mmHg 80%
    08:00 +16°C° 0 mm 1 mps 606 mmHg 70%
    09:00 +19°C° 0 mm 1 mps 606 mmHg 59%
    10:00 +19°C° 0 mm 2 mps 607 mmHg 48%
    11:00 +20°C° 0 mm 2 mps 607 mmHg 45%
    12:00 +21°C° 0 mm 2 mps 607 mmHg 41%
    13:00 +21°C° 0 mm 2 mps 607 mmHg 38%
    14:00 +21°C° 0 mm 2 mps 607 mmHg 39%
    15:00 +21°C° 0 mm 3 mps 606 mmHg 41%
    16:00 +21°C° 0 mm 3 mps 606 mmHg 42%
    17:00 +19°C° 0 mm 2 mps 606 mmHg 53%
    18:00 +17°C° 0 mm 2 mps 605 mmHg 64%
    19:00 +16°C° 0 mm 1 mps 604 mmHg 75%
    20:00 +14°C° 0 mm 1 mps 604 mmHg 81%
    21:00 +12°C° 0 mm 1 mps 603 mmHg 86%
    22:00 +10°C° 0 mm 1 mps 603 mmHg 91%
    23:00 +10°C° 0 mm 1 mps 602 mmHg 88%

    24 July, Wednesday

    Time Temperature Precipitation Wind Pressure Humidity
    00:00 +10°C° 0 mm 1 mps 602 mmHg 86%
    01:00 +9°C° 0 mm 1 mps 602 mmHg 83%
    02:00 +9°C° 0 mm 1 mps 602 mmHg 80%
    03:00 +9°C° 0 mm 1 mps 602 mmHg 77%
    04:00 +9°C° 0 mm 1 mps 602 mmHg 74%
    05:00 +11°C° 0 mm 1 mps 603 mmHg 70%
    06:00 +13°C° 0 mm 1 mps 604 mmHg 65%
    07:00 +16°C° 0 mm 1 mps 605 mmHg 61%
    08:00 +18°C° 0 mm 1 mps 605 mmHg 56%
    09:00 +20°C° 0 mm 1 mps 606 mmHg 52%
    10:00 +20°C° 0 mm 2 mps 606 mmHg 48%
    11:00 +21°C° 0 mm 2 mps 606 mmHg 46%
    12:00 +21°C° 0 mm 2 mps 606 mmHg 45%
    13:00 +23°C° 0 mm 2 mps 607 mmHg 44%
    14:00 +23°C° 0 mm 2 mps 606 mmHg 46%
    15:00 +23°C° 0 mm 2 mps 606 mmHg 47%
    16:00 +21°C° 0 mm 3 mps 606 mmHg 49%
    17:00 +20°C° 0 mm 2 mps 605 mmHg 59%
    18:00 +18°C° 0 mm 2 mps 605 mmHg 69%
    19:00 +18°C° 0 mm 1 mps 604 mmHg 79%
    20:00 +15°C° 0 mm 1 mps 604 mmHg 84%
    21:00 +13°C° 0 mm 1 mps 603 mmHg 88%
    22:00 +11°C° 0 mm 1 mps 602 mmHg 93%
    23:00 +11°C° 0 mm 1 mps 602 mmHg 92%
    Show more